Flag for Poland Weather past 2 weeks in Tarnów, Poland

Now
62 °F

Cool.


Feels Like: 62 °F
Forecast: 59 / 87 °F
Wind: 1 mph from East

Location: Tarnow

Current Time: Aug 2, 2015 at 9:22:55 AM

Latest Report: Aug 2, 2015 at 8:00 AM


Visibility: 14 mi

Pressure: 30.12 "Hg

Humidity: 76%

Dew point: 54 °F

Location of TarnówLocation

Historic Weather in Tarnów — Graph

°F

Tarnów temperature yesterday

Maximum temperature yesterday: 77 °F (at 4:00 PM)
Minimum temperature yesterday: 46 °F (at 4:00 AM)
Average temperature yesterday: 64 °F

Past Weeks' High & Low Weather Summary

 TemperatureHumidityPressure
High94 °F (Jul 23, 12:00 PM)96% (Jul 20, 6:00 AM)30.16 "Hg (Jul 20, 6:00 AM)
Low46 °F (Aug 1, 4:00 AM)23% (Jul 18, 3:00 PM)29.62 "Hg (Jul 25, 4:00 PM)
Average70 °F66%29.91 "Hg
* Reported Jul 18 8:00 AM — Aug 2 8:00 AM, Tarnów, Weather by CustomWeather, © 2015

Note: Actual official high and low records may vary slightly from our data, if they occured in-between our weather recording intervals... More about our weather records

Advertising

Tarnów weather history for previous 24 hours

 ConditionsComfort  
Time TempWeatherWind HumidityBarometerVisibility
8:00 AM
Sun, Aug 2
62 °FCool.1 mph76%30.12 "Hg14 mi
7:00 AM56 °FCool.No wind90%30.13 "Hg10 mi
6:00 AM53 °FCool.No wind95%30.12 "Hg8 mi
5:00 AM51 °FCool.1 mph93%30.12 "Hg11 mi
4:00 AM52 °FCool.No wind87%30.12 "Hg13 mi
3:00 AM55 °FCool.No wind79%30.12 "Hg18 mi
2:00 AM58 °FCool.1 mph71%30.12 "Hg22 mi
1:00 AM58 °FCool.1 mph71%30.12 "Hg19 mi
12:00 AM60 °FCool.1 mph65%30.11 "Hg22 mi
10:00 PM
Sat, Aug 1
64 °FMild.2 mph59%30.09 "Hg19 mi
9:00 PM67 °FMild.3 mph53%30.09 "Hg22 mi
8:00 PM69 °FMild.2 mph46%30.06 "Hg19 mi
7:00 PM73 °FMild.2 mph38%30.06 "Hg31 mi
6:00 PM74 °FMild.3 mph37%30.06 "Hg22 mi
5:00 PM76 °FMild.2 mph32%30.06 "Hg18 mi
4:00 PM77 °FMild.2 mph30%30.07 "Hg19 mi
3:00 PM77 °FMild.2 mph29%30.08 "Hg22 mi
2:00 PM76 °FMild.2 mph32%30.10 "Hg22 mi
1:00 PM74 °FMild.2 mph31%30.11 "Hg22 mi
12:00 PM74 °FMild.1 mph37%30.12 "Hg18 mi
11:00 AM72 °FMild.2 mph38%30.14 "Hg19 mi
10:00 AM69 °FMild.2 mph46%30.14 "Hg19 mi
9:00 AM64 °FMild.1 mph57%30.14 "Hg19 mi
Weather by CustomWeather, © 2015

See weather overviewHow to use our weather pages